Location: Westminster
(33.3626°N, 96.4619°W)
Time: 04:59:27
(UTC+00:00)

OAO 3 Rocket - Pass Details

Date: 05 July 2022
Orbit: 628 x 681 km, 35.0° (Epoch: 08 August)

Event Time Altitude Azimuth Distance (km) Brightness Sun altitude
Rises 10:47:40 0° 282° (WNW) 3,029 6.2 -7.0°
Reaches altitude 10° 10:50:08 10° 276° (W) 2,112 5.3 -6.5°
Maximum altitude 10:54:51 46° 204° (SSW) 906 3.6 -5.7°
Drops below altitude 10° 10:59:32 10° 131° (SE) 2,093 6.0 -4.9°
Sets 11:01:58 0° 126° (SE) 2,999 6.9 -4.4°
